Location: Newark
(48.6461°N, 4.3644°W)
Time: 06:53:26
(UTC+00:00)

Transit 4A - Pass Details

Date: 25 January 2020
Orbit: 872 x 973 km, 66.8° (Epoch: 17 February)

Event Time Altitude Azimuth Distance (km) Brightness Sun altitude
Rises 09:37:29 0° 273° (W) 3,518 10.5 12.2°
Reaches altitude 10° 09:40:49 10° 292° (WNW) 2,563 9.7 12.6°
Maximum altitude 09:44:53 19° 335° (NNW) 1,996 9.2 13.0°
Drops below altitude 10° 09:48:56 10° 20° (NNE) 2,539 9.9 13.4°
Sets 09:52:14 0° 38° (NE) 3,473 10.8 13.8°
